Weather reports worldwide

Advertisment
Leuchars, United Kingdom (3171): temperature & dewpoint: 11.10.2017 15:00:00 - 17.10.2017 15:00:00 (BST)Leuchars, United Kingdom (3171): temperature -20cm & temperature -100cm: 11.10.2017 15:00:00 - 17.10.2017 15:00:00 (BST)Leuchars, United Kingdom (3171): wind speed & gusts: 11.10.2017 15:00:00 - 17.10.2017 15:00:00 (BST)Leuchars, United Kingdom (3171): wind direction: 11.10.2017 15:00:00 - 17.10.2017 15:00:00 (BST)Leuchars, United Kingdom (3171): reduced air pressure: 11.10.2017 15:00:00 - 17.10.2017 15:00:00 (BST)Leuchars, United Kingdom (3171): visibility: 11.10.2017 15:00:00 - 17.10.2017 15:00:00 (BST)Leuchars, United Kingdom (3171): sunshine duration: 11.10.2017 15:00:00 - 17.10.2017 15:00:00 (BST)Leuchars, United Kingdom (3171): precipitation: 11.10.2017 15:00:00 - 17.10.2017 15:00:00 (BST)
Date & Time tt [°C] td [°C] tt -20cm [°C] tt -100cm [°C] ff [km/h] ff [kn] fx [km/h] fx [kn] dd ppp [hPa] vv [km] sd [min] rr [mm]
17.10.2017 15:00:00 14,5 9,6 - - 35 19 54 29 W 1006,7 10 12 0,0
17.10.2017 14:00:00 14,8 9,7 - - 41 22 61 33 W 1005,3 10 48 0,0
17.10.2017 13:00:00 16,0 10,2 - - 42 23 63 34 W 1004,4 10 42 0,0
17.10.2017 12:00:00 14,6 10,8 - - 39 21 67 36 W 1003,4 10 24 0,0
17.10.2017 11:00:00 13,5 10,6 - - 50 27 74 40 WSW 1001,7 10 0 0,0
17.10.2017 10:00:00 13,6 10,6 10,5 12,0 52 28 70 38 WSW 1000,3 10 0 0,0
17.10.2017 09:00:00 13,0 10,9 - - 50 27 68 37 WSW 999,0 10 0 0,0
17.10.2017 08:00:00 12,7 11,1 - - 44 24 68 37 WSW 998,0 10 0 0,2
17.10.2017 07:00:00 12,9 10,8 - - 46 25 85 46 WSW 996,6 10 0 0,0
17.10.2017 06:00:00 12,7 10,1 - - 59 32 85 46 WSW 994,8 10 0 0,0
17.10.2017 05:00:00 12,3 9,9 - - 57 31 89 48 WSW 994,0 10 0 0,0
17.10.2017 04:00:00 13,4 9,1 - - 57 31 81 44 SW 993,5 10 0 0,0
17.10.2017 03:00:00 13,6 10,0 - - 50 27 76 41 SW 993,8 10 0 0,0
17.10.2017 02:00:00 13,7 10,9 - - 42 23 63 34 SW 993,7 10 0 0,0
17.10.2017 01:00:00 13,7 10,8 - - 34 18 50 27 SSW 994,1 10 - 0,0
17.10.2017 00:00:00 13,9 10,3 - - 31 17 48 26 SSW 994,7 10 0 0,0
16.10.2017 23:00:00 13,6 10,2 - - 34 18 50 27 S 994,9 10 0 0,0
16.10.2017 22:00:00 13,4 9,8 - - 31 17 50 27 S 996,1 10 0 0,0
16.10.2017 21:00:00 14,1 9,5 - - 34 18 52 28 S 997,4 10 0 0,0
16.10.2017 20:00:00 13,9 12,6 - - 13 7 - - SSE 998,3 7 0 0,0
16.10.2017 19:00:00 13,7 13,1 - - 16 9 - - SSE 999,1 6 0 -
16.10.2017 18:00:00 13,4 13,3 - - 26 14 - - S 999,9 6 0 0,0
16.10.2017 17:00:00 12,7 12,6 - - 24 13 - - ESE 1001,3 0,2 0 0,0
16.10.2017 16:00:00 12,9 12,5 - - 29 16 - - ESE 1003,3 3,0 0 0,0
16.10.2017 15:00:00 12,6 12,3 - - 28 15 - - E 1005,5 4,5 0 0,0
16.10.2017 14:00:00 12,5 12,3 - - 26 14 - - E 1007,8 3,5 0 0,0
16.10.2017 13:00:00 12,4 12,3 - - 26 14 - - E 1008,3 3,5 0 0,0
16.10.2017 12:00:00 12,0 11,9 - - 26 14 - - E 1009,8 4,0 0 1,4
16.10.2017 11:00:00 11,5 11,5 - - 15 8 - - ENE 1012,3 1,5 0 1,8
16.10.2017 10:00:00 10,9 10,8 10,5 12,0 21 11 - - ENE 1013,7 1,0 0 0,6
16.10.2017 09:00:00 10,5 10,4 - - 16 9 - - ENE 1014,0 1,2 0 0,2
16.10.2017 08:00:00 10,3 10,0 - - 21 11 - - ENE 1012,8 4,0 0 0,4
16.10.2017 07:00:00 10,2 10,0 - - 18 10 - - ENE 1013,3 2,5 0 0,8
16.10.2017 06:00:00 10,0 9,7 - - 16 9 - - ENE 1014,0 10 0 2,2
16.10.2017 05:00:00 9,9 9,5 - - 15 8 - - ENE 1014,3 2,8 0 1,2
16.10.2017 04:00:00 10,4 9,6 - - 26 14 - - E 1013,6 10 0 0,0
16.10.2017 03:00:00 10,2 8,7 - - 5 3 - - ENE 1013,9 10 0 0,0
16.10.2017 02:00:00 10,1 8,3 - - 4 2 - - NE 1013,6 10 0 0,0
16.10.2017 01:00:00 10,9 8,5 - - 8 4 - - WNW 1014,1 10 - 0,0
16.10.2017 00:00:00 10,6 8,3 - - 5 3 - - WNW 1013,6 10 0 0,0
15.10.2017 23:00:00 11,3 8,1 - - 9 5 - - W 1013,1 10 0 0,0
15.10.2017 22:00:00 11,8 8,1 - - 9 5 - - W 1012,8 10 0 0,0
15.10.2017 21:00:00 12,1 8,4 - - 11 6 - - W 1012,3 10 0 0,0
15.10.2017 20:00:00 13,0 8,5 - - 9 5 - - W 1011,5 10 0 0,0
15.10.2017 19:00:00 13,9 9,4 - - 21 11 48 26 W 1010,3 10 0 0,0
15.10.2017 18:00:00 14,9 10,4 - - 37 20 65 35 W 1008,7 10 30 0,0
15.10.2017 17:00:00 17,0 11,4 - - 42 23 57 31 W 1007,4 10 36 0,0
15.10.2017 16:00:00 17,3 12,6 - - 35 19 54 29 W 1006,7 10 6 0,0
15.10.2017 15:00:00 17,4 13,5 - - 26 14 55 30 W 1006,5 10 0 0,0
15.10.2017 14:00:00 16,6 12,9 - - 37 20 57 31 WSW 1006,4 10 6 0,0
15.10.2017 13:00:00 16,2 12,5 - - 37 20 57 31 W 1006,5 10 0 0,0
15.10.2017 12:00:00 16,2 12,0 - - 28 15 - - W 1006,8 10 0 0,0
15.10.2017 11:00:00 15,7 11,3 - - 31 17 54 29 WSW 1007,0 10 0 0,0
15.10.2017 10:00:00 15,2 11,0 10,5 12,0 39 21 55 30 WSW 1007,1 10 0 0,0
15.10.2017 09:00:00 14,7 10,6 - - 41 22 65 35 WSW 1007,5 10 0 0,0
15.10.2017 08:00:00 14,6 10,4 - - 50 27 68 37 SW 1007,4 10 0 0,0
15.10.2017 07:00:00 14,7 10,2 - - 26 14 46 25 WSW 1008,3 10 0 0,0
15.10.2017 06:00:00 15,3 10,6 - - 31 17 52 28 WSW 1009,1 10 0 0,0
15.10.2017 05:00:00 15,3 10,9 - - 26 14 52 28 WSW 1009,6 10 0 0,0
15.10.2017 04:00:00 15,3 10,8 - - 37 20 54 29 WSW 1010,1 10 0 0,0
15.10.2017 03:00:00 15,3 11,6 - - 28 15 - - SW 1011,0 10 0 0,0
15.10.2017 02:00:00 15,0 11,7 - - 21 11 - - WSW 1012,0 10 0 0,0
15.10.2017 01:00:00 14,6 11,3 - - 24 13 - - WSW 1012,8 10 - 0,0
15.10.2017 00:00:00 14,8 11,6 - - 15 8 - - WSW 1013,6 10 0 0,0
14.10.2017 23:00:00 14,3 12,8 - - 21 11 - - SW 1013,9 10 0 0,0
14.10.2017 22:00:00 12,3 10,1 - - 9 5 - - SE 1014,3 10 0 0,0
14.10.2017 21:00:00 12,0 9,9 - - 5 3 - - SSE 1015,4 7 0 0,0
14.10.2017 20:00:00 11,9 9,8 - - 8 4 - - SSW 1016,3 10 0 0,0
14.10.2017 19:00:00 12,3 9,6 - - 11 6 - - SSW 1016,4 10 0 0,0
14.10.2017 18:00:00 12,7 8,6 - - 11 6 - - WSW 1016,5 10 0 0,0
14.10.2017 17:00:00 13,3 7,7 - - 18 10 - - W 1016,5 10 0 0,0
14.10.2017 16:00:00 14,0 7,6 - - 16 9 - - W 1015,7 10 0 0,0
14.10.2017 15:00:00 13,8 6,8 - - 24 13 - - W 1016,0 10 0 0,0
14.10.2017 14:00:00 13,8 8,8 - - 28 15 - - WSW 1015,8 10 0 0,0
14.10.2017 13:00:00 14,6 9,9 - - 22 12 - - WSW 1014,9 10 0 0,0
14.10.2017 12:00:00 14,1 9,9 - - 18 10 - - WSW 1015,1 10 0 0,0
14.10.2017 11:00:00 13,5 10,7 - - 13 7 - - WSW 1014,8 10 0 0,0
14.10.2017 10:00:00 13,1 10,9 10,5 12,0 18 10 - - SW 1014,7 10 12 0,0
14.10.2017 09:00:00 10,3 8,9 - - 15 8 - - SW 1014,2 10 0 0,0
14.10.2017 08:00:00 10,0 8,3 - - 16 9 - - SW 1013,8 10 0 0,0
14.10.2017 07:00:00 10,5 8,4 - - 16 9 - - WSW 1013,5 10 0 0,0
14.10.2017 06:00:00 10,8 9,1 - - 16 9 - - SW 1013,1 10 0 0,0
14.10.2017 05:00:00 11,1 8,9 - - 16 9 - - SW 1012,7 10 0 0,0
14.10.2017 04:00:00 11,8 9,6 - - 21 11 - - WSW 1012,2 10 0 0,0
14.10.2017 03:00:00 12,4 9,9 - - 21 11 - - WSW 1012,0 10 0 0,0
14.10.2017 02:00:00 12,1 10,2 - - 22 12 - - SW 1011,6 10 0 0,0
14.10.2017 01:00:00 11,4 9,6 - - 16 9 - - SW 1011,6 10 - 0,0
14.10.2017 00:00:00 11,6 9,7 - - 13 7 - - WSW 1011,1 10 0 0,0
13.10.2017 23:00:00 12,6 10,1 - - 13 7 - - W 1010,8 10 0 0,0
13.10.2017 22:00:00 13,4 10,8 - - 22 12 - - WSW 1010,1 10 0 0,0
13.10.2017 21:00:00 13,9 11,0 - - 22 12 - - WSW 1009,7 10 0 0,0
13.10.2017 20:00:00 13,3 10,8 - - 18 10 - - WSW 1009,6 10 0 0,0
13.10.2017 19:00:00 13,1 9,7 - - 16 9 - - WSW 1009,1 10 0 0,0
13.10.2017 18:00:00 13,9 9,3 - - 24 13 - - W 1008,6 10 0 0,0
13.10.2017 17:00:00 14,8 10,6 - - 28 15 - - WSW 1007,7 10 6 0,0
13.10.2017 16:00:00 15,4 10,1 - - 34 18 59 32 W 1007,0 10 18 0,0
13.10.2017 15:00:00 15,4 10,9 - - 42 23 65 35 W 1006,6 10 0 0,0
13.10.2017 14:00:00 15,6 13,0 - - 35 19 61 33 W 1005,6 10 6 0,4
13.10.2017 13:00:00 18,7 15,6 - - 46 25 67 36 WSW 1004,2 10 0 0,0
13.10.2017 12:00:00 19,3 16,1 - - 41 22 61 33 WSW 1003,7 10 6 0,0
13.10.2017 11:00:00 17,2 15,8 - - 34 18 65 35 SW 1004,0 9 24 0,0
13.10.2017 10:00:00 17,8 15,3 10,2 12,0 41 22 65 35 SW 1003,8 10 12 0,0
13.10.2017 09:00:00 17,0 14,9 - - 44 24 57 31 SW 1003,5 10 0 0,0
13.10.2017 08:00:00 16,1 14,8 - - 35 19 50 27 SW 1004,0 6 0 0,2
13.10.2017 07:00:00 16,0 14,4 - - 34 18 46 25 SW 1003,9 10 0 0,2
13.10.2017 06:00:00 16,1 14,3 - - 28 15 48 26 SW 1003,9 10 0 0,0
13.10.2017 05:00:00 15,9 14,6 - - 39 21 57 31 SW 1004,4 10 0 0,0
13.10.2017 04:00:00 15,7 13,9 - - 35 19 46 25 SW 1004,7 10 0 0,0
13.10.2017 03:00:00 15,0 13,6 - - 29 16 46 25 SW 1005,7 10 0 0,0
13.10.2017 02:00:00 14,6 12,8 - - 34 18 46 25 SW 1006,2 10 0 0,0
13.10.2017 01:00:00 13,3 12,6 - - 18 10 - - SW 1007,0 10 - 0,0
13.10.2017 00:00:00 12,2 11,6 - - 21 11 - - WSW 1007,7 10 0 0,6
12.10.2017 23:00:00 12,3 11,0 - - 18 10 - - WSW 1008,9 10 0 0,2
12.10.2017 22:00:00 12,6 9,4 - - 26 14 - - WSW 1009,3 10 0 0,0
12.10.2017 21:00:00 11,8 8,0 - - 24 13 - - SW 1009,3 10 0 0,0
12.10.2017 20:00:00 12,2 7,7 - - 29 16 - - WSW 1010,3 10 0 0,0
12.10.2017 19:00:00 12,2 8,0 - - 21 11 - - SW 1010,8 10 0 0,0
12.10.2017 18:00:00 12,9 7,6 - - 21 11 - - WSW 1011,1 10 0 0,0
12.10.2017 17:00:00 12,6 7,7 - - 18 10 - - SW 1011,1 10 0 0,0
12.10.2017 16:00:00 12,9 7,8 - - 34 18 55 30 WSW 1011,2 10 12 0,0
12.10.2017 15:00:00 12,9 8,0 - - 39 21 55 30 WSW 1011,6 10 0 0,0
12.10.2017 14:00:00 13,2 9,4 - - 29 16 52 28 WSW 1011,1 10 6 0,0
12.10.2017 13:00:00 12,7 8,7 - - 34 18 - - WSW 1010,7 10 0 0,0
12.10.2017 12:00:00 11,9 8,3 - - 26 14 - - WSW 1010,7 10 0 0,0
12.10.2017 11:00:00 11,5 8,1 - - 26 14 - - WSW 1009,9 10 0 0,0
12.10.2017 10:00:00 10,2 7,3 10,4 12,0 16 9 - - W 1009,0 10 18 0,0
12.10.2017 09:00:00 9,6 7,1 - - 22 12 - - WSW 1007,9 10 6 0,0
12.10.2017 08:00:00 8,3 6,8 - - 21 11 - - W 1007,5 10 0 0,0
12.10.2017 07:00:00 8,4 6,9 - - 29 16 - - WSW 1006,3 10 0 0,0
12.10.2017 06:00:00 7,8 6,4 - - 21 11 - - WSW 1005,7 10 0 0,0
12.10.2017 05:00:00 7,1 5,6 - - 18 10 - - W 1005,1 10 0 0,0
12.10.2017 04:00:00 8,0 6,0 - - 26 14 - - W 1004,6 10 0 0,0
12.10.2017 03:00:00 7,8 5,6 - - 22 12 - - W 1003,9 10 0 0,0
12.10.2017 02:00:00 7,4 5,2 - - 24 13 - - W 1003,6 10 0 0,0
12.10.2017 01:00:00 7,6 4,7 - - 22 12 - - W 1002,9 10 - 0,0
12.10.2017 00:00:00 8,2 3,9 - - 21 11 - - W 1002,5 10 0 0,0
11.10.2017 23:00:00 10,1 5,9 - - 24 13 - - W 1001,2 10 0 0,0
11.10.2017 22:00:00 10,5 8,1 - - 26 14 - - W 999,6 10 0 0,0
11.10.2017 21:00:00 10,0 7,8 - - 28 15 - - W 998,2 10 0 0,0
11.10.2017 20:00:00 11,0 7,4 - - 24 13 - - WSW 997,5 10 0 0,0
11.10.2017 19:00:00 11,5 7,9 - - 22 12 - - WSW 996,8 10 0 0,0
11.10.2017 18:00:00 12,1 7,1 - - 18 10 - - W 995,9 10 42 0,0
11.10.2017 17:00:00 14,5 7,6 - - 24 13 - - W 995,3 10 42 0,0
11.10.2017 16:00:00 15,0 6,5 - - 28 15 - - W 995,1 10 36 0,0
11.10.2017 15:00:00 14,7 8,9 - - 22 12 - - W 994,6 10 6 0,0

tt = temperature
td = dewpoint
tt -20cm = temperature -20cm
tt -100cm = temperature -100cm
ff = wind speed
fx = gusts
dd = wind direction
ppp = reduced air pressure
vv = visibility
sd = sunshine duration
rr = precipitation

Next stations